| time (UTC) | temp C | wind direction | speed KPH | gust KPH | rain 1hr cm | rain 24hr cm | rain mn cm | humidity % | barometer mb |
| 20260503203508 | 11 | 269 | 14.5 | 29.0 | 319.79 | 0.00 | 0.00 | 41 | 1007.0 |
| 20260503203008 | 11 | 281 | 14.5 | 29.0 | 319.79 | 0.00 | 0.00 | 40 | 1007.0 |
| 20260503202507 | 11 | 266 | 16.1 | 22.5 | 319.79 | 0.00 | 0.00 | 40 | 1006.9 |
| 20260503201508 | 11 | 304 | 14.5 | 19.3 | 319.79 | 0.00 | 0.00 | 39 | 1006.8 |
| 20260503201007 | 11 | 287 | 8.0 | 19.3 | 319.79 | 0.00 | 0.00 | 39 | 1006.7 |
| 20260503200507 | 11 | 252 | 11.3 | 14.5 | 319.79 | 0.00 | 0.00 | 39 | 1006.6 |
| 20260503200008 | 11 | 297 | 8.0 | 20.9 | 319.79 | 0.00 | 0.00 | 40 | 1006.6 |
| 20260503195507 | 11 | 288 | 8.0 | 17.7 | 319.79 | 0.00 | 0.00 | 39 | 1006.6 |
| 20260503195007 | 11 | 295 | 14.5 | 33.8 | 319.79 | 0.00 | 0.00 | 39 | 1006.6 |
| 20260503194512 | 11 | 293 | 14.5 | 29.0 | 319.79 | 0.00 | 0.00 | 38 | 1006.6 |
| 20260503194007 | 11 | 253 | 11.3 | 30.6 | 319.79 | 0.00 | 0.00 | 39 | 1006.6 |
| 20260503193008 | 11 | 211 | 9.7 | 19.3 | 319.79 | 0.00 | 0.00 | 40 | 1006.7 |
| 20260503192507 | 11 | 274 | 11.3 | 41.8 | 319.79 | 0.00 | 0.00 | 39 | 1006.7 |
| 20260503192007 | 11 | 318 | 20.9 | 35.4 | 319.79 | 0.00 | 0.00 | 39 | 1006.6 |
| 20260503191508 | 11 | 283 | 11.3 | 24.1 | 319.79 | 0.00 | 0.00 | 40 | 1006.6 |
| 20260503191007 | 11 | 281 | 8.0 | 16.1 | 319.79 | 0.00 | 0.00 | 42 | 1006.7 |
| 20260503190507 | 11 | 270 | 8.0 | 19.3 | 319.79 | 0.00 | 0.00 | 44 | 1006.7 |
| 20260503190008 | 11 | 302 | 9.7 | 22.5 | 319.79 | 0.00 | 0.00 | 43 | 1006.7 |
| 20260503185507 | 11 | 240 | 6.4 | 16.1 | 319.79 | 0.00 | 0.00 | 44 | 1006.7 |
| 20260503185007 | 11 | 302 | 4.8 | 17.7 | 319.79 | 0.00 | 0.00 | 47 | 1006.7 |
| 20260503184508 | 11 | 291 | 8.0 | 9.7 | 319.79 | 0.00 | 0.00 | 49 | 1006.7 |
| 20260503184007 | 10 | 281 | 4.8 | 19.3 | 319.79 | 0.00 | 0.00 | 47 | 1006.7 |
| 20260503183507 | 10 | 248 | 9.7 | 16.1 | 319.79 | 0.00 | 0.00 | 47 | 1006.7 |
| 20260503183008 | 11 | 328 | 3.2 | 12.9 | 319.79 | 0.00 | 0.00 | 50 | 1006.8 |
| 20260503182507 | 11 | 263 | 4.8 | 19.3 | 319.79 | 0.00 | 0.00 | 49 | 1006.7 |
| 20260503181508 | 11 | 338 | 6.4 | 11.3 | 319.79 | 0.00 | 0.00 | 46 | 1006.7 |
| 20260503181007 | 11 | 253 | 6.4 | 19.3 | 319.79 | 0.00 | 0.00 | 48 | 1006.7 |
| 20260503180508 | 11 | 18 | 11.3 | 14.5 | 319.79 | 0.00 | 0.00 | 43 | 1006.7 |
| 20260503180009 | 11 | 325 | 9.7 | 16.1 | 319.79 | 0.00 | 0.00 | 42 | 1006.6 |
| 20260503175507 | 11 | 267 | 4.8 | 19.3 | 319.79 | 0.00 | 0.00 | 47 | 1006.7 |
| 20260503175008 | 11 | 266 | 8.0 | 14.5 | 319.79 | 0.00 | 0.00 | 45 | 1006.7 |
| 20260503174508 | 11 | 270 | 6.4 | 14.5 | 319.79 | 0.00 | 0.00 | 48 | 1006.7 |
| 20260503174007 | 11 | 352 | 4.8 | 8.0 | 319.79 | 0.00 | 0.00 | 48 | 1006.6 |
| 20260503173507 | 10 | 256 | 4.8 | 20.9 | 319.79 | 0.00 | 0.00 | 50 | 1006.6 |
| 20260503173008 | 10 | 278 | 11.3 | 14.5 | 319.79 | 0.00 | 0.00 | 47 | 1006.7 |
| 20260503172507 | 10 | 294 | 4.8 | 14.5 | 319.79 | 0.00 | 0.00 | 48 | 1006.8 |
| 20260503172007 | 10 | 255 | 8.0 | 17.7 | 319.79 | 0.00 | 0.00 | 49 | 1006.9 |
| 20260503171511 | 10 | 298 | 8.0 | 22.5 | 319.79 | 0.00 | 0.00 | 49 | 1006.9 |
| 20260503170507 | 10 | 277 | 3.2 | 32.2 | 319.79 | 0.00 | 0.00 | 52 | 1006.9 |
| 20260503151007 | 7 | 295 | 6.4 | 20.9 | 319.79 | 0.00 | 0.00 | 69 | 1007.0 |
| 20260503150507 | 7 | 323 | 8.0 | 16.1 | 319.79 | 0.00 | 0.00 | 69 | 1007.0 |
| 20260503131007 | 7 | 321 | 3.2 | 19.3 | 319.79 | 0.00 | 0.00 | 79 | 1007.3 |
| 20260503130507 | 7 | 318 | 12.9 | 14.5 | 319.79 | 0.00 | 0.00 | 78 | 1007.3 |
| 20260503110507 | 4 | 186 | 0.0 | 3.2 | 319.79 | 0.00 | 0.00 | 93 | 1007.5 |
| 20260503090507 | 5 | 23 | 0.0 | 4.8 | 319.79 | 0.00 | 0.00 | 94 | 1008.0 |
| 20260503081507 | 5 | 271 | 1.6 | 6.4 | 319.79 | 0.00 | 0.00 | 95 | 1008.7 |
| 20260503081006 | 5 | 273 | 0.0 | 4.8 | 319.79 | 0.00 | 0.00 | 95 | 1008.8 |
| 20260503080506 | 5 | 264 | 3.2 | 8.0 | 319.79 | 0.00 | 0.00 | 95 | 1008.8 |
| 20260503072506 | 5 | 271 | 1.6 | 6.4 | 319.79 | 0.00 | 0.00 | 96 | 1009.0 |
| 20260503072006 | 5 | 256 | 3.2 | 3.2 | 319.79 | 0.00 | 0.00 | 96 | 1009.0 |
| 20260503071507 | 5 | 0 | 0.0 | 0.0 | 319.79 | 0.00 | 0.00 | 96 | 1009.0 |
| 20260503071006 | 5 | 297 | 0.0 | 3.2 | 319.79 | 0.00 | 0.00 | 96 | 1009.2 |
| 20260503070506 | 5 | 0 | 1.6 | 0.0 | 319.79 | 0.00 | 0.00 | 96 | 1009.2 |
| 20260503055007 | 6 | 0 | 0.0 | 0.0 | 319.79 | 0.00 | 0.00 | 96 | 1010.2 |
| 20260503054506 | 6 | 263 | 0.0 | 1.6 | 319.79 | 0.00 | 0.00 | 96 | 1010.1 |
| 20260503054006 | 6 | 271 | 1.6 | 3.2 | 319.79 | 0.00 | 0.00 | 96 | 1010.1 |
| 20260503053506 | 6 | 271 | 1.6 | 3.2 | 319.79 | 0.00 | 0.00 | 95 | 1010.1 |
| 20260503053007 | 6 | 277 | 0.0 | 1.6 | 319.79 | 0.00 | 0.00 | 95 | 1010.1 |
| 20260503052506 | 6 | 274 | 1.6 | 4.8 | 319.79 | 0.00 | 0.00 | 95 | 1010.2 |
| 20260503052006 | 6 | 287 | 3.2 | 3.2 | 319.79 | 0.00 | 0.00 | 95 | 1010.4 |
| 20260503051507 | 6 | 288 | 3.2 | 4.8 | 319.79 | 0.00 | 0.00 | 95 | 1010.4 |
| 20260503051006 | 6 | 290 | 1.6 | 4.8 | 319.79 | 0.00 | 0.00 | 94 | 1010.4 |
| 20260503050506 | 6 | 271 | 3.2 | 3.2 | 319.79 | 0.00 | 0.00 | 93 | 1010.6 |
| 20260503050007 | 6 | 276 | 1.6 | 4.8 | 319.79 | 0.00 | 0.00 | 93 | 1010.6 |
| 20260503045507 | 6 | 284 | 3.2 | 3.2 | 319.79 | 0.00 | 0.00 | 92 | 1010.7 |
| 20260503045006 | 6 | 0 | 0.0 | 0.0 | 319.79 | 0.00 | 0.00 | 92 | 1010.7 |
| 20260503044506 | 6 | 0 | 0.0 | 0.0 | 319.79 | 0.00 | 0.00 | 92 | 1010.7 |
| 20260503044006 | 6 | 0 | 0.0 | 0.0 | 319.79 | 0.00 | 0.00 | 91 | 1010.8 |
| 20260503043506 | 6 | 304 | 0.0 | 4.8 | 319.79 | 0.00 | 0.00 | 91 | 1010.9 |
| 20260503043006 | 6 | 0 | 0.0 | 0.0 | 319.79 | 0.00 | 0.00 | 91 | 1010.8 |
| 20260503042508 | 6 | 38 | 0.0 | 1.6 | 319.79 | 0.00 | 0.00 | 90 | 1010.8 |
| 20260503042006 | 6 | 0 | 0.0 | 0.0 | 319.79 | 0.00 | 0.00 | 90 | 1011.0 |
| 20260503041508 | 6 | 0 | 0.0 | 0.0 | 319.79 | 0.00 | 0.00 | 90 | 1011.0 |
| 20260503041006 | 6 | 0 | 0.0 | 0.0 | 319.79 | 0.00 | 0.00 | 91 | 1011.1 |
| 20260503040506 | 6 | 0 | 0.0 | 0.0 | 319.79 | 0.00 | 0.00 | 91 | 1011.0 |
| 20260503040006 | 6 | 329 | 0.0 | 1.6 | 319.79 | 0.00 | 0.00 | 91 | 1011.0 |
| 20260503035506 | 6 | 257 | 0.0 | 4.8 | 319.79 | 0.00 | 0.43 | 92 | 1011.0 |
| 20260503035006 | 6 | 307 | 3.2 | 4.8 | 319.79 | 0.00 | 0.43 | 92 | 1011.0 |
| 20260503034507 | 6 | 311 | 0.0 | 4.8 | 319.79 | 0.00 | 0.43 | 93 | 1011.0 |
| 20260503034006 | 7 | 291 | 1.6 | 4.8 | 319.79 | 0.00 | 0.43 | 95 | 1011.0 |
| 20260503033506 | 6 | 281 | 0.0 | 9.7 | 319.79 | 0.00 | 0.43 | 95 | 1011.2 |
| 20260503033006 | 7 | 295 | 3.2 | 9.7 | 319.79 | 0.00 | 0.43 | 96 | 1011.1 |
| 20260503032506 | 7 | 281 | 1.6 | 8.0 | 319.79 | 0.00 | 0.43 | 97 | 1011.2 |
| 20260503032009 | 7 | 211 | 0.0 | 3.2 | 319.79 | 0.00 | 0.43 | 97 | 1011.1 |
| 20260503031506 | 7 | 0 | 0.0 | 0.0 | 319.79 | 0.00 | 0.43 | 97 | 1011.2 |
| 20260503030506 | 7 | 0 | 0.0 | 0.0 | 319.79 | 0.00 | 0.43 | 97 | 1011.0 |
| 20260503030006 | 7 | 0 | 0.0 | 0.0 | 319.79 | 0.00 | 0.43 | 97 | 1011.1 |
| 20260503025506 | 7 | 0 | 0.0 | 0.0 | 319.79 | 0.00 | 0.43 | 97 | 1011.1 |
| 20260503025005 | 7 | 0 | 0.0 | 0.0 | 319.79 | 0.00 | 0.43 | 97 | 1011.0 |
| 20260503024507 | 7 | 0 | 0.0 | 0.0 | 319.79 | 0.00 | 0.43 | 96 | 1011.0 |
| 20260503024007 | 7 | 239 | 0.0 | 1.6 | 319.79 | 0.00 | 0.43 | 96 | 1010.9 |
| 20260503023506 | 7 | 0 | 0.0 | 0.0 | 319.79 | 0.00 | 0.43 | 96 | 1010.8 |
| 20260503023006 | 7 | 274 | 0.0 | 3.2 | 319.79 | 0.00 | 0.43 | 96 | 1011.0 |
| 20260503022506 | 7 | 0 | 0.0 | 0.0 | 319.79 | 0.00 | 0.43 | 96 | 1011.1 |
| 20260503022005 | 7 | 0 | 0.0 | 0.0 | 319.79 | 0.00 | 0.43 | 96 | 1011.1 |
| 20260503021506 | 7 | 277 | 0.0 | 3.2 | 319.79 | 0.00 | 0.43 | 96 | 1011.1 |
| 20260503021005 | 7 | 304 | 1.6 | 4.8 | 319.79 | 0.00 | 0.43 | 96 | 1011.2 |
| 20260503020506 | 7 | 274 | 0.0 | 6.4 | 319.79 | 0.00 | 0.43 | 96 | 1011.3 |
| 20260503020008 | 7 | 284 | 4.8 | 4.8 | 319.79 | 0.00 | 0.43 | 96 | 1011.3 |
| 20260503015505 | 7 | 269 | 0.0 | 6.4 | 319.79 | 0.00 | 0.43 | 96 | 1011.2 |
| 20260503014506 | 7 | 274 | 3.2 | 6.4 | 319.79 | 0.00 | 0.43 | 96 | 1011.4 |
| 20260503014005 | 8 | 309 | 3.2 | 4.8 | 319.79 | 0.00 | 0.43 | 96 | 1011.4 |
| 20260503013507 | 8 | 285 | 3.2 | 4.8 | 319.79 | 0.00 | 0.43 | 95 | 1011.3 |
| 20260503013006 | 8 | 256 | 3.2 | 4.8 | 319.79 | 0.00 | 0.43 | 95 | 1011.3 |
| 20260503012505 | 8 | 280 | 4.8 | 6.4 | 319.79 | 0.00 | 0.43 | 95 | 1011.3 |
| 20260503012005 | 8 | 295 | 3.2 | 4.8 | 319.79 | 0.00 | 0.43 | 94 | 1011.3 |
| 20260503011507 | 8 | 281 | 1.6 | 4.8 | 319.79 | 0.00 | 0.43 | 93 | 1011.3 |
| 20260503011009 | 8 | 276 | 4.8 | 4.8 | 319.79 | 0.00 | 0.43 | 92 | 1011.3 |
| 20260503010505 | 8 | 0 | 0.0 | 0.0 | 319.79 | 0.00 | 0.43 | 91 | 1011.2 |
| 20260503010008 | 8 | 0 | 0.0 | 0.0 | 319.79 | 0.00 | 0.43 | 91 | 1011.1 |
| 20260503005505 | 8 | 0 | 0.0 | 0.0 | 319.79 | 0.00 | 0.43 | 91 | 1011.2 |
| 20260503005005 | 8 | 0 | 0.0 | 0.0 | 319.79 | 0.00 | 0.43 | 90 | 1011.3 |
| 20260503004506 | 8 | 0 | 0.0 | 0.0 | 319.79 | 0.00 | 0.43 | 90 | 1011.2 |
| 20260503004005 | 8 | 0 | 0.0 | 0.0 | 319.79 | 0.00 | 0.43 | 90 | 1011.1 |
| 20260503003006 | 9 | 359 | 0.0 | 1.6 | 319.79 | 0.00 | 0.43 | 90 | 1011.1 |
| 20260503002505 | 9 | 345 | 0.0 | 1.6 | 319.76 | 0.00 | 0.41 | 90 | 1011.0 |
| 20260503002005 | 9 | 346 | 0.0 | 6.4 | 319.76 | 0.00 | 0.41 | 91 | 1011.0 |
| 20260503001506 | 9 | 339 | 1.6 | 4.8 | 319.76 | 0.00 | 0.41 | 91 | 1011.0 |
| 20260503001005 | 10 | 0 | 0.0 | 0.0 | 319.76 | 0.00 | 0.41 | 92 | 1011.0 |
| 20260503000505 | 10 | 90 | 0.0 | 1.6 | 319.76 | 0.00 | 0.41 | 93 | 1010.9 |
| 20260503000006 | 10 | 125 | 1.6 | 1.6 | 319.76 | 0.00 | 0.41 | 93 | 1010.9 |
| 20260502235505 | 10 | 65 | 0.0 | 3.2 | 319.76 | 0.00 | 0.41 | 93 | 1010.8 |
| 20260502235006 | 10 | 31 | 0.0 | 3.2 | 319.76 | 0.00 | 0.41 | 93 | 1010.8 |
| 20260502234506 | 10 | 104 | 0.0 | 4.8 | 319.76 | 0.00 | 0.41 | 93 | 1010.8 |
| 20260502234005 | 10 | 105 | 0.0 | 3.2 | 319.76 | 0.00 | 0.41 | 93 | 1010.7 |
| 20260502233505 | 10 | 0 | 0.0 | 0.0 | 319.76 | 0.00 | 0.41 | 93 | 1010.8 |
| 20260502233006 | 10 | 4 | 0.0 | 3.2 | 319.76 | 0.00 | 0.41 | 93 | 1010.8 |
| 20260502232505 | 10 | 325 | 1.6 | 1.6 | 319.76 | 0.00 | 0.41 | 92 | 1010.8 |
| 20260502232005 | 10 | 0 | 0.0 | 0.0 | 319.76 | 0.00 | 0.41 | 93 | 1010.7 |
| 20260502231506 | 10 | 0 | 0.0 | 0.0 | 319.76 | 0.00 | 0.41 | 92 | 1010.7 |
| 20260502231005 | 10 | 0 | 0.0 | 0.0 | 319.76 | 0.00 | 0.41 | 92 | 1010.7 |
| 20260502230505 | 10 | 0 | 0.0 | 0.0 | 319.76 | 0.00 | 0.41 | 92 | 1010.5 |
| 20260502230006 | 10 | 0 | 0.0 | 0.0 | 319.76 | 0.00 | 0.41 | 92 | 1010.5 |
| 20260502225505 | 10 | 0 | 0.0 | 0.0 | 319.76 | 0.00 | 0.41 | 92 | 1010.4 |
| 20260502224506 | 10 | 0 | 0.0 | 0.0 | 319.76 | 0.00 | 0.41 | 93 | 1010.3 |
| 20260502224006 | 10 | 0 | 0.0 | 0.0 | 319.76 | 0.00 | 0.41 | 93 | 1010.4 |
| 20260502223505 | 10 | 330 | 0.0 | 0.0 | 319.76 | 0.00 | 0.41 | 94 | 1010.2 |
| 20260502223007 | 10 | 0 | 0.0 | 0.0 | 319.76 | 0.00 | 0.41 | 93 | 1010.2 |
| 20260502221508 | 10 | 0 | 0.0 | 0.0 | 319.76 | 0.00 | 0.41 | 92 | 1010.2 |
| 20260502220508 | 10 | 284 | 1.6 | 1.6 | 319.76 | 0.00 | 0.41 | 94 | 1010.2 |
| 20260502220006 | 10 | 62 | 0.0 | 1.6 | 319.76 | 0.00 | 0.41 | 94 | 1010.2 |
| 20260502215506 | 10 | 0 | 0.0 | 0.0 | 319.76 | 0.00 | 0.41 | 94 | 1010.1 |
| 20260502215006 | 10 | 0 | 0.0 | 0.0 | 319.76 | 0.00 | 0.41 | 94 | 1010.0 |
| 20260502214514 | 10 | 134 | 0.0 | 1.6 | 319.76 | 0.00 | 0.41 | 94 | 1010.1 |
| 20260502214009 | 10 | 187 | 0.0 | 4.8 | 319.76 | 0.00 | 0.41 | 93 | 1010.2 |
| 20260502213505 | 10 | 208 | 3.2 | 3.2 | 319.76 | 0.00 | 0.41 | 93 | 1010.3 |
| 20260502213006 | 9 | 0 | 0.0 | 0.0 | 319.76 | 0.00 | 0.41 | 92 | 1010.3 |
| 20260502211005 | 9 | 188 | 0.0 | 9.7 | 319.74 | 0.00 | 0.38 | 92 | 1010.4 |
| 20260502210507 | 9 | 195 | 3.2 | 9.7 | 319.74 | 0.00 | 0.38 | 92 | 1010.4 |
| 20260502210016 | 9 | 145 | 4.8 | 6.4 | 319.74 | 0.00 | 0.38 | 92 | 1010.5 |
| 20260502205505 | 9 | 218 | 0.0 | 4.8 | 319.71 | 0.00 | 0.36 | 92 | 1010.5 |
| 20260502205005 | 9 | 0 | 1.6 | 0.0 | 319.71 | 0.00 | 0.36 | 91 | 1010.4 |
| 20260502204509 | 9 | 0 | 0.0 | 0.0 | 319.71 | 0.00 | 0.36 | 91 | 1010.3 |
| 20260502204005 | 9 | 0 | 0.0 | 0.0 | 319.71 | 0.00 | 0.36 | 91 | 1010.3 |